SL-19 R/B, 23440

Orbit data source: Space-Track

SL-19 R/B, 23440 is space debris in LEO originally from a launch on Mon, 26 Dec 1994 UTC launched from the Tyuratam Missile And Space Complex (TTMTR). Debris objects in space refer to the collection of defunct objects orbiting the Earth. Examples of debris include non-operational satellites, rocket bodies, and fragments generated from explosions, collisions, or faulty payload assembly.

Loading next visibility...
Identifier
23440, 1994-085B
Orbit
LEO
Country
Flag of CISCIS
Related business
Manufacturer
Khrunichev
Mission
Spacecraft
Bus & Motor
BRIZ, Unknown motor
Mass
~1,700 kg wet, ~1,700 kg dry
Launch date (UTC)
1994-12-26 (31 years ago)
Launch vehicle
Unknown
Launch site
Tyuratam Missile And Space Complex (TTMTR)
Object type
Payload
Rocket body
Debris
Shape & HBR
Hex Cyl + 1 Rod, 1.3 m
Radar Cross Section
5.049 m², Large (>1 m²)

Expand to show TLE details & history
Last TLE update: 22 hours ago

TLE from 22 hours ago
0 SL-19 R/B
1 23440U 94085B   25309.50282182 -.00000041  00000-0  36649-4 0  9994
2 23440  64.8347 329.8172 0173767  22.7943  89.9629 11.27133471270403
Epoch: 2025-11-05T12:04Z
TLE epoch observation values (Epoch: 2025-11-05T12:04:03.805Z)
Latitude
55.38687°
Longitude
-118.82778°
Altitude
2,035.207 km
Speed
6.888 km/s
True Right ascension
07h 08m 39s
True Declination
55° 15' 01"
Sunlit
Object was in daylight at epoch
Visualization orbit readout
Latitude
Unknown
Longitude
Unknown
Altitude
Unknown
Speed
Unknown
Apparent Right ascension
Unknown
Apparent Declination
Unknown
Sunlit
N/A
Visualization observer readout
Local Sidereal Time
05:53:06
Azimuth
Unknown
Elevation
Unknown
Doppler factor
Unknown
Orbital elements
Apogee altitude
2,169.348 km
Perigee altitude
1,877.367 km
Semi-major axis
8,401.494 km
Eccentricity
0.01738
Inclination
64.8347°
RAAN
329.8172°
Arg. of periapsis
22.7943°
True anomaly
91.95375°
Mean anomaly
89.9629°
Eccentric anomaly
90.95837°
Mean motion
2.81844 °/min
Orbital period
127.73 mins
BSTAR
0.000036649
Loading maneuver chart data...
Computing Atmospheric mass density...
Loading historical data...
Loading historical data...
Loading historical data...
Loading historical data...
Loading historical data...
Loading historical data...
Loading historical data...

Documentation

Showing up to 5 results
|